Other Public Products
Issued by NWS Grand Forks, ND

Home | Current Version | Previous Version | Graphics & Text | Print | Product List | Glossary On
Versions: 1 2 3 4 5 6 7 8 9 10 11 12 13 14 15 16 17 18 19 20 21 22 23 24 25 26 27 28 29 30 31 32 33 34 35 36 37 38 39 40 41 42 43 44 45 46 47 48 49 50
000
FPUS83 KFGF 200831
OPUFGF
PRAIRIE TO PINES WEATHER ROUNDUP
NATIONAL WEATHER SERVICE EASTERN NORTH DAKOTA/GRAND FORKS ND
200 AM CST MON FEB 20 2017

 **SATELLITE DATA USED TO AUGMENT SKY COVER AT AUTOMATED STATIONS**
 *****  WEATHER ACROSS EASTERN NORTH DAKOTA  *****

CITY           SKY/WX    TMP DP  RH WIND       PRES   REMARKS
GRAND FORKS    FAIR      41  36  82 S15       29.58S
GRAND FORKS AF FAIR      39  39  99 S9        29.58S FOG
GRAND CITY NWS NOT AVBL
BUXTON         NOT AVBL
DEVILS LAKE    FOG       36  35  96 E5        29.56R VSB 1/4
FARGO          FAIR      52  48  86 SE16      29.60F
WAHPETON ARPT  CLOUDY    46  43  87 SE10      29.62F
$$

 *****  WEATHER ACROSS CENTRAL AND WESTERN NORTH DAKOTA  *****

CITY           SKY/WX    TMP DP  RH WIND       PRES   REMARKS
JAMESTOWN      CLOUDY    43  42  97 S13       29.55R FOG
BISMARCK       LGT RAIN  38  35  89 VRB6      29.57R
MINOT          CLOUDY    34  32  92 NW6       29.56R FOG
MINOT AFB      FAIR      32  32 100 NW13      29.55S WCI  22
GARRISON         N/A     36  33  89 NW12      29.55R
WILLISTON      CLOUDY    33  32  96 W10       29.63R FOG     WCI  25
DICKINSON      MOCLDY    36  33  89 NW9       29.55S
HETTINGER      FAIR      40  34  79 NW13      29.58R
$$

 *****  OTHER OBSERVATIONS NORTHEAST NORTH DAKOTA  *****

CITY           SKY/WX    TMP DP  RH WIND       PRES   REMARKS
WALHALLA       NOT AVBL
LANGDON        NOT AVBL
CAVALIER       CLOUDY    37  36  93 S5        29.59R
GRAFTON        FAIR      36  36 100 SE5       29.60S FOG
CANDO          NOT AVBL
FORT TOTTEN      N/A     38  38 100 SE5       29.95S
ROLLA          FOG       32  32 100 S3        29.55S VSB 1/4
RUGBY            N/A     32  32 100 NW8       29.56R WCI  25
 ***** THE ABOVE OBSERVATIONS ARE NON NWS ARE NOT QUALITY
        CONTROLLED AND MAY MIS-REPORT RAIN FOR SNOW...
$$

 *****  OTHER OBSERVATIONS SOUTHEAST NORTH DAKOTA *****

CITY           SKY/WX    TMP DP  RH WIND       PRES   REMARKS
COOPERSTOWN    FAIR      39  39 100 S15       29.56R FOG
VALLEY CITY    PTSUNNY   43  43 100 S13       29.58S
OAKES          NOT AVBL
GWINNER        FAIR      50  48  93 S15       29.56F
SHEYENNE NWR     N/A     47  45  94 SE10      29.95S
BUFFALO        NOT AVBL
WYNDMERE         N/A     46  46 100 SE7         N/A
 ***** THE ABOVE OBSERVATIONS ARE NON NWS ARE NOT QUALITY
       CONTROLLED AND MAY MIS-REPORT RAIN FOR SNOW...
$$

  *****  WEATHER ACROSS NORTHERN MINNESOTA  *****

CITY           SKY/WX    TMP DP  RH WIND       PRES   REMARKS
FLAG ISLAND    FAIR      39  30  70 SE8G16    29.70F
WARROAD        FAIR      43  36  75 SE13      29.69S
ROSEAU         FAIR      43  36  75 SE14      29.66S
HALLOCK        FAIR      39  37  93 SE16      29.59S
THF RVR FALLS  FAIR      40  37  89 SE14      29.64F
HALSTAD          N/A     48  45  87 S14         N/A
FOSSTON        FAIR      45  39  81 SE13      29.65F
BAUDETTE       FAIR      40  30  67 SE12      29.72F
WASKISH        FAIR      45  36  70 SE17G25   29.73F
CROOKSTON      FAIR      43  41  93 SE14      29.61F
$$
  *****  WEATHER ACROSS CENTRAL AND WEST MINNESOTA  *****

CITY           SKY/WX    TMP DP  RH WIND       PRES   REMARKS
BEMIDJI        FAIR      39  33  78 SE14      29.72F
PARK RAPIDS    FAIR      47  39  74 SE10      29.72S
WADENA         LGT RAIN  45  41  87 SE9       29.74R
DETROIT LAKES  LGT RAIN  43  43 100 S13       29.68F
MOORHEAD       FAIR      54  48  82 SE24      29.62S
FERGUS FALLS   LGT RAIN  52  46  82 SE15      29.70S
ELBOW LAKE     CLOUDY    51  48  91 SE16G22   29.68S
MORRIS MN      FAIR      50  46  87 SE12      29.68S
STAPLES        MOCLDY    46  41  81 SE6       29.74F
WHEATON        MOCLDY    52  46  82 SE18G24   29.66S
$$
  *****  WEATHER ELSEWHERE ACROSS MINNESOTA  *****

CITY           SKY/WX    TMP DP  RH WIND       PRES   REMARKS
DULUTH         FAIR      39  31  72 SE15      29.93S
INTRNTL FALLS  CLOUDY    40  29  64 SE14      29.80F
ELY            FAIR      37  28  70 E10       29.91F
CLOQUET        FAIR      36  30  80 E6        29.91F
BRAINERD       FAIR      44  36  73 SE7       29.78F
HIBBING        FAIR      38  30  73 SE6       29.88S
ALEXANDRIA     TSTM      51  48  89 SE7       29.73R FOG
SAINT CLOUD    FAIR      49  43  80 SE10      29.78F
MINNEAPOLIS    MOCLDY    48  40  73 SE12      29.86F
$$

  *****  WEATHER ACROSS SOUTH DAKOTA  *****

CITY           SKY/WX    TMP DP  RH WIND       PRES   REMARKS
SIOUX FALLS    FAIR      54  51  90 S15       29.69F
BROOKINGS      FAIR      50  48  93 S10       29.68F
WATERTOWN      FAIR      48  46  93 S13       29.64F
HURON          CLOUDY    53  49  86 S12       29.61R
SISSETON         N/A     55  49  80 S18       29.62S
ABERDEEN       FAIR      52  46  80 S21       29.57F
MITCHELL       FAIR      54  50  86 S14       29.64R
PIERRE         FAIR      49  41  74 E3        29.53S
MOBRIDGE       FAIR      44  34  67 SE7       29.50S
RAPID CITY     LGT RAIN  49  38  65 N23G30    29.59R
$$

  *****  SOME WEATHER IN NEARBY STATES *****

CITY           SKY/WX    TMP DP  RH WIND       PRES   REMARKS
GLASGOW MT     FAIR      27  25  92 S5        29.65R WCI  22
GREAT FALLS MT FAIR      33  25  72 SW13      29.68R WCI  24
CHEYENNE WY    FAIR      40  15  36 NW14G28   29.81R
SCOTTSBLUFF NE CLOUDY    46  35  65 W9        29.72R
OMAHA NE       CLOUDY    59  52  77 S15       29.78F
DES MOINES IA  CLOUDY    60  47  61 SE9       29.88F
DAVENPORT IA   FAIR      53  48  83 SE13      30.02S
CHICAGO IL     MOCLDY    45  36  70 SE6       30.11F
EAU CLAIRE WI  FAIR      47  35  63 SE8       29.95S
LA CROSSE WI   FAIR      48  38  68 SE6       29.97F
$$

  *****  SOME NATIONAL WEATHER *****

CITY           SKY/WX    TMP DP  RH WIND       PRES   REMARKS
LA GUARDIA NY  FAIR      50  33  52 NW17      30.01S
RALEIGH NC     FAIR      47  40  76 CALM      30.11R
ATLANTA GA     FAIR      50  44  80 N3        30.13F
NEW ORLEANS LA FAIR      64  64 100 SE5       30.03F
OKLAHOMA CITY  RAIN      58  56  93 SW10      29.90R FOG
ALBUQUERQUE NM CLOUDY    42  33  70 SW8       30.01S
SALT LAKE CITY FAIR      42  36  79 SE12      29.93R
LOS ANGELES CA LGT RAIN  55  52  89 SE5       30.18R
BOISE ID       FAIR      42  33  70 SE14      29.78S
SEATTLE WA     CLOUDY    42  36  79 S3        29.61S
$$

*** WEATHER ACROSS MANITOBA...SASKATCHEWAN AND ONTARIO ***
                ***ONTARIO***

CITY           SKY/WX    TMP DP  RH WIND       PRES   REMARKS
GERALDTON      MOCLDY    23  19  86 E8        30.19R WCI  14
THUNDER BAY    MOCLDY    32  32 100 E12       30.12S WCI  23
SIOUX LOOKOUT  CLOUDY    37  27  65 SE8       29.89F
TORONTO        CLEAR     34  28  80 N10       30.20R
BIG TROUT LK   MOCLDY    23  21  93 SE9       30.08F WCI  13
PICKLE LAKE    NOT AVBL
DRYDEN         CLOUDY    39  28  65 SE16G22   29.84F
KENORA         MOCLDY    41  30  65 SE13G21   29.75F
$$
                *** MANITOBA***

CITY           SKY/WX    TMP DP  RH WIND       PRES   REMARKS
BRANDON        CLOUDY    32  32 100 N5        29.55F
DAUPHIN        CLOUDY    30  28  93 NW6       29.60S WCI  24
ISLAND LAKE    FRZ RAIN  27  25  93 E8        29.88F WCI  18
PILOT MOUND      N/A     34  34 100 S6          N/A
THE PAS        CLOUDY    27  19  74 E6        29.71F WCI  20
THOMPSON       CLOUDY    21  18  86 E8        29.88F WCI  12
WINNIPEG       CLOUDY    41  34  75 SE15      29.60
LYNN LAKE      CLOUDY    18  16  93 E8        29.84S WCI   7
CHURCHILL      FLURRIES  12   9  85 SE6       30.14R WCI   3
GILLAM         CLOUDY    19  16  86 E6        30.03F WCI  11
$$
                ***SASKATCHEWAN***

CITY           SKY/WX    TMP DP  RH WIND       PRES   REMARKS
ESTEVAN        CLOUDY    32  32 100 W16       29.59R FOG     WCI  21
KINDERSLEY     CLOUDY    32  32 100 W5        29.54R BLWGSAND
LLOYDMINSTER   FOG       32  32 100 W10       29.49S VSB 1   WCI  24
PRINCE ALBERT  FLURRIES  28  25  86 E10       29.59S WCI  19
REGINA         CLOUDY    32  32 100 S6        29.59S
YORKTON        CLOUDY    30  28  93 VRB2      29.59S FO



USA.gov is the U.S. government's official web portal to all federal, state and local government web resources and services.